Location: East Guldeford
(50.9500°N, 0.7500°E)
Time: 18:37:00
(UTC+00:00)

Cosmos 1812 - Pass Details

Date: 12 May 2021
Orbit: 514 x 521 km, 82.5° (Epoch: 15 June)

Event Time Altitude Azimuth Distance (km) Brightness Sun altitude
Exits shadow 20:32:32 - 161° (SSE) 1,967 5.1 -7.9°
Reaches altitude 10° 20:33:05 10° 158° (SSE) 1,756 4.8 -8.0°
Maximum altitude 20:36:36 35° 92° (E) 861 3.4 -8.4°
Drops below altitude 10° 20:40:09 10° 26° (NNE) 1,770 5.7 -8.8°
Sets 20:42:25 0° 18° (NNE) 2,663 6.7 -9.1°
